Location: Unspecified
(0.0000°N, 0.0000°E)
Time: 02:35:00
(UTC+00:00)

STARLINK-1053 - Pass Details

Date: 22 January 2020
Orbit: 546 x 548 km, 53.1° (Epoch: 18 January)

Event Time Altitude Azimuth Distance (km) Brightness Sun altitude
Exits shadow 03:38:29 - 165° (SSE) 2,182 7.1 -35.6°
Reaches altitude 10° 03:40:26 10° 143° (SE) 1,815 6.9 -35.2°
Drops below altitude 10° 03:42:57 10° 107° (ESE) 1,811 7.0 -34.6°
Enters shadow 05:04:50 -25° 219° (SW) 6,593 9.0 -15.6°
Maximum altitude 05:21:07 36° 304° (WNW) 874 4.1 -11.8°
